Location: M.A.R.S.Observatory
(35.4031°N, 81.5481°W)
Time: 22:40:10
(UTC-04:00)

SL-8 R/B - Visible Passes

Search period start: 22 June 2018 00:00
Search period end: 02 July 2018 00:00
Orbit: 656 x 668 km, 48.4° (Epoch: 20 June)

Date Brightness Start Highest point End Pass type
(mag) Time Alt. Az. Time Alt. Az. Time Alt. Az.
22 Jun 6.5 01:43:11 10° NW 01:46:23 17° N 01:49:35 10° NE visible
22 Jun 5.4 03:25:41 10° NW 03:30:04 33° NNE 03:34:25 10° E visible
22 Jun 3.8 05:08:04 10° WNW 05:12:47 56° SW 05:17:28 10° SE visible
22 Jun 5.4 22:46:06 10° W 22:50:30 34° NNW 22:54:54 10° NE visible
23 Jun 6.5 00:30:56 10° NW 00:34:10 17° N 00:37:23 10° NE visible
23 Jun 6.1 02:14:20 10° NW 02:18:05 22° NNE 02:21:49 10° ENE visible
23 Jun 4.0 03:56:31 10° NW 04:01:19 66° NE 04:06:06 10° ESE visible
23 Jun 4.9 05:39:53 10° W 05:43:30 21° SW 05:47:06 10° S visible
23 Jun 4.2 21:33:59 10° WSW 21:38:46 64° NW 21:43:35 10° NE visible
23 Jun 6.2 23:18:17 10° WNW 23:22:01 22° NNW 23:25:44 10° NE visible
24 Jun 6.4 01:02:42 10° NW 01:05:56 17° N 01:09:10 10° NE visible
24 Jun 5.3 02:45:10 10° NW 02:49:36 34° NNE 02:54:00 10° E visible
24 Jun 3.8 04:27:36 10° WNW 04:32:17 52° SW 04:36:56 10° SSE visible
24 Jun 5.6 22:05:41 10° W 22:10:02 32° NNW 22:14:23 10° NE visible
24 Jun 6.5 23:50:31 10° NW 23:53:43 17° N 23:56:55 10° NE visible
25 Jun 6.0 01:33:50 10° NW 01:37:39 22° NNE 01:41:26 10° ENE visible
25 Jun 3.9 03:16:00 10° NW 03:20:49 70° NE 03:25:37 10° ESE visible
25 Jun 4.9 04:59:30 10° W 05:02:58 20° SW 05:06:25 10° S visible
25 Jun 6.3 22:37:54 10° WNW 22:41:34 21° NNW 22:45:14 10° NE visible
26 Jun 6.4 00:22:14 10° NW 00:25:30 18° N 00:28:46 10° NE visible
26 Jun 5.1 02:04:39 10° NW 02:09:07 36° NNE 02:10:29 30° ENE visible
26 Jun 5.6 03:47:08 10° WNW 03:48:15 17° WNW 03:48:15 17° WNW visible
26 Jun 5.7 21:25:16 10° W 21:29:34 31° NNW 21:33:53 10° NE visible
26 Jun 6.5 23:10:06 10° NW 23:13:17 17° N 23:16:29 10° NE visible
27 Jun 5.9 00:53:19 10° NW 00:57:11 23° NNE 01:00:02 14° ENE visible
27 Jun 5.2 02:35:30 10° NW 02:37:54 29° NW 02:37:54 29° NW visible
27 Jun 6.3 21:57:30 10° WNW 22:01:07 20° NNW 22:04:45 10° NE visible
27 Jun 6.3 23:41:46 10° NW 23:45:04 18° N 23:48:22 10° NE visible
28 Jun 5.0 01:24:09 10° NW 01:28:17 37° NNE 01:28:17 37° NNE visible
28 Jun 6.4 22:29:41 10° NW 22:32:51 17° N 22:36:01 10° NE visible
29 Jun 5.8 00:12:49 10° NW 00:16:44 24° NNE 00:18:59 17° NE visible
29 Jun 5.6 01:55:00 10° NW 01:56:54 24° NW 01:56:54 24° NW visible
29 Jun 6.3 21:17:07 10° WNW 21:20:40 20° NNW 21:24:15 10° NE visible
29 Jun 6.2 23:01:17 10° NW 23:04:37 18° N 23:07:58 10° NE visible
30 Jun 4.9 00:43:38 10° NW 00:47:48 39° NNE 00:47:48 39° NNE visible
30 Jun 6.3 21:49:16 10° NW 21:52:25 17° N 21:55:35 10° NE visible
30 Jun 5.7 23:32:19 10° NW 23:36:17 25° NNE 23:38:48 17° ENE visible
01 Jul 5.4 01:14:30 10° NW 01:16:44 27° NW 01:16:44 27° NW visible
01 Jul 6.1 22:20:49 10° NW 22:24:12 18° N 22:27:34 10° NE visible
